Location: Moscow
(55.7500°N, 37.5830°E)
Time: 10:51:06
(UTC+03:00)

Vanguard 3 - Pass Details

Date: 01 December 2021
Orbit: 508 x 3260 km, 33.3° (Epoch: 19 January)

Event Time Altitude Azimuth Distance (km) Brightness Sun altitude
Rises 09:01:45 0° 258° (WSW) 6,826 11.5 1.9°
Reaches altitude 10° 09:08:16 10° 246° (WSW) 5,397 11.2 2.6°
Maximum altitude 09:17:52 21° 207° (SSW) 3,758 10.9 3.5°
Drops below altitude 10° 09:24:54 10° 164° (SSE) 3,802 12.0 4.1°
Sets 09:28:27 0° 148° (SSE) 4,363 13.5 4.4°
